Lid_Strength_Index
1 4 5 7 11 13 15 12 11 10 10 9 7 8 9 8 10 13 2 1 0 0 -1 -1 -1 -0 -0 -1 -1 -2 -1 -1 -1 -1 -1 -1 -1 -1 -1 -1 -1 -1 -1 -1 -1 -1 -1 -1 -1
3 4 6 10 14 16 15 12 11 11 9 8 8 9 8 9 5 4 3 1 -0 -0 -1 -0 -1 -1 -0 -1 -1 -1 -2 -1 -0 -1 -1 -1 -1 -1 -1 -1 -1 -1 -1 -1 -1 -1 -1 -1 -1
6 5 9 13 15 16 15 12 12 9 9 8 9 6 8 7 5 4 3 1 1 1 -0 0 -0 -0 -1 -1 -1 -1 -1 -1 -1 -1 -1 -1 -1 -1 -1 -1 -1 -1 -1 -1 -1 -1 -1 -1 -1
7 8 10 14 15 14 12 12 11 10 8 8 9 9 7 6 6 3 2 4 4 4 3 0 -1 -1 -1 -1 -0 -1 -1 -1 -1 -1 -1 -1 -1 -1 -2 -2 -1 -1 -1 -1 -1 -1 -1 -1 -1
9 11 15 15 15 13 12 10 10 10 10 9 8 9 8 7 5 3 4 3 3 4 5 2 -1 -1 -1 -1 -1 -1 -1 -1 -1 -1 -0 -0 -1 -0 -1 -2 -1 -1 -1 -1 -1 -1 -1 -1 1
11 13 16 17 15 13 12 10 10 11 10 9 10 9 10 8 6 4 4 4 3 3 3 4 3 -1 -1 -1 -1 -1 -1 -1 -1 -1 0 0 0 1 0 0 -1 -1 -1 -1 -1 -1 -1 1 -0
12 15 17 17 15 13 11 9 11 12 11 10 9 11 10 8 7 6 5 5 4 4 4 3 5 1 -0 -0 -0 -1 -1 -1 -1 -0 1 1 1 1 2 1 1 -1 -1 -0 0 1 1 2 1
12 14 16 16 16 14 11 10 10 11 11 9 10 12 12 10 7 6 5 6 6 6 5 4 3 4 2 -1 0 0 -0 -1 -1 0 1 1 2 2 2 3 2 -1 -0 1 2 2 2 3 1
11 15 17 16 15 14 11 12 10 10 11 10 10 11 10 8 7 7 8 7 7 7 6 5 4 3 3 2 0 0 -0 0 -0 0 2 2 2 3 3 3 3 4 1 2 2 3 3 3 2
13 16 15 13 12 12 12 12 12 12 12 12 11 10 8 8 9 9 10 10 9 8 7 6 5 4 3 2 0 0 -0 0 1 0 1 2 3 3 4 4 4 5 6 5 4 5 5 6 6
13 14 12 12 11 11 12 13 12 13 14 12 13 11 9 9 10 10 10 10 10 9 7 6 6 5 3 2 2 1 1 0 0 0 0 2 3 4 5 6 6 7 7 8 9 9 9 8 7
14 13 13 11 11 11 12 12 13 14 13 11 11 10 10 10 11 11 11 10 9 8 7 6 6 5 3 2 2 0 2 2 2 0 1 1 3 5 7 7 7 7 8 9 9 9 8 8 7
14 14 12 12 12 13 11 13 14 14 12 11 10 10 11 11 11 11 10 9 9 8 7 7 6 5 3 3 2 -0 1 2 2 1 1 2 3 5 6 7 7 8 8 8 9 8 8 8 8
14 14 15 14 14 13 14 14 13 14 12 11 11 12 12 12 12 11 10 10 9 8 8 7 6 5 4 3 2 1 0 0 1 1 2 3 3 5 6 6 7 7 8 8 8 8 9 9 8
15 17 16 14 14 14 13 15 15 13 12 12 12 13 12 12 12 12 11 10 10 9 8 7 6 5 5 3 3 0 0 1 1 1 2 3 4 5 6 6 6 7 7 7 8 8 9 10 10
17 18 19 15 14 13 14 17 14 12 12 12 13 14 13 13 13 12 12 11 10 10 9 8 6 5 5 4 2 -0 -0 1 1 2 2 3 4 5 6 6 7 6 6 7 7 8 9 10 10
18 20 19 17 15 14 14 16 14 12 13 14 14 14 14 14 13 13 12 12 11 11 10 9 7 6 5 3 2 0 1 1 1 1 2 2 4 5 5 6 6 7 7 7 7 8 9 10 11
20 20 19 20 17 16 17 16 14 13 14 15 15 15 14 14 14 13 13 12 12 12 11 10 8 7 5 4 2 0 1 2 2 2 2 2 3 4 5 5 6 7 7 7 7 8 9 10 10
18 19 20 19 16 17 18 17 15 14 14 15 15 15 15 14 14 13 13 13 12 12 11 10 9 8 6 5 4 2 2 2 3 3 3 3 2 4 5 5 6 6 7 7 7 8 9 10 10
17 19 20 17 16 17 17 18 16 15 15 15 15 14 14 14 14 13 13 13 13 13 12 10 10 9 7 6 4 3 2 2 2 2 3 3 3 4 5 5 6 7 7 7 7 8 9 9 10
18 18 18 18 16 17 18 19 18 16 14 14 14 14 14 14 14 14 13 13 13 12 12 11 10 9 8 6 5 3 3 3 3 3 4 4 4 4 5 5 6 7 7 7 8 8 8 10 9
19 16 17 17 19 22 18 24 18 16 14 14 14 14 14 14 13 13 13 13 13 12 12 11 10 10 9 7 6 6 5 6 5 3 3 4 4 4 5 6 6 7 8 8 8 7 8 8 10
17 16 17 17 19 20 19 22 18 16 16 15 14 13 14 14 13 13 13 12 12 12 12 11 11 10 10 10 8 7 7 6 5 6 5 4 5 5 5 5 7 7 8 7 8 7 8 8 9
15 17 18 18 19 28 20 20 19 18 16 15 14 14 13 14 13 12 12 11 11 11 11 10 10 10 9 10 10 10 9 8 8 7 7 7 6 6 6 6 7 7 7 8 8 8 8 8 9
16 20 28 27 28 27 19 20 18 16 14 15 15 14 13 13 13 12 12 11 11 11 11 10 10 10 9 9 10 11 11 10 10 9 9 9 9 8 7 6 7 7 8 8 8 8 8 8 9
17 19 26 31 29 25 18 22 18 14 14 14 14 14 13 13 12 12 11 10 10 9 9 8 9 9 9 9 9 10 11 11 11 11 10 10 9 9 9 7 6 7 7 8 8 9 9 9 10
17 21 17 26 28 27 21 17 16 14 14 14 13 13 13 12 11 11 10 9 8 8 8 7 7 7 8 9 9 10 11 12 12 12 12 12 11 10 9 8 7 7 7 7 8 9 9 9 9
16 15 21 24 30 31 24 20 19 16 16 15 15 14 13 12 11 10 10 9 8 8 7 6 6 7 7 7 7 8 9 9 10 11 12 12 12 12 11 10 8 9 8 7 7 8 8 9 9
18 20 18 18 20 27 29 23 17 15 15 16 15 14 13 12 11 10 10 10 7 6 6 6 6 7 7 7 7 7 8 9 9 10 11 12 11 12 12 12 10 10 9 9 8 8 8 9 9
16 17 17 24 24 21 23 23 14 15 15 15 15 13 12 12 11 11 10 10 7 7 6 6 7 8 8 8 8 8 8 9 10 11 12 11 12 12 12 11 10 10 10 9 9 9 9 9 9